Wind_Speed
25 25 24 24 24 24 23 23 22 22 22 21 20 20 20 20 20 20 20 19 19 19 19 20 19 19 19 19 19 19 19 19 19 19 19 19 18 18 18 18 18 18 17
27 27 26 26 25 25 25 24 24 23 23 22 22 21 21 21 21 21 21 21 21 20 20 21 21 21 21 21 21 21 21 20 20 20 20 19 20 20 19 19 19 19 19
29 28 28 27 27 27 27 26 26 24 24 24 24 23 23 23 23 23 23 23 22 22 22 22 22 22 23 22 22 22 21 21 21 21 21 21 21 21 21 21 21 21 21
30 30 30 29 29 28 28 28 27 27 26 26 25 25 25 25 24 25 25 25 25 24 23 23 24 24 24 23 23 23 22 23 23 23 23 22 22 23 23 23 23 23 23
32 32 31 31 31 30 30 29 29 29 29 28 28 27 27 27 26 26 26 26 26 26 26 25 25 25 24 25 25 25 24 24 24 25 24 24 24 24 24 25 25 25 24
33 33 33 33 32 32 32 31 31 31 30 30 30 30 29 29 29 28 28 27 27 27 27 27 27 26 26 26 26 26 26 26 26 26 26 26 26 26 26 26 26 26 26
34 34 34 34 34 33 33 33 32 32 31 32 32 31 30 31 30 30 29 29 28 28 28 28 28 28 28 28 28 28 28 28 28 28 28 28 28 28 28 28 28 28 28
37 36 36 35 35 35 35 34 33 33 33 33 33 33 32 32 31 31 31 31 31 30 30 30 30 30 29 29 29 29 29 30 30 30 30 30 30 30 30 30 29 30 30
39 38 37 37 36 36 36 35 35 35 35 34 34 34 34 33 33 33 33 33 33 33 32 32 32 31 30 30 31 31 31 31 31 32 32 32 32 32 32 32 32 32 32
40 39 39 38 38 37 36 36 36 36 35 35 36 36 35 35 34 34 34 34 35 35 35 34 33 33 33 32 32 32 33 33 33 33 33 33 33 33 33 33 33 33 33
41 40 40 39 39 38 38 38 37 36 36 36 36 36 36 35 35 35 35 35 35 35 35 35 34 34 34 33 32 33 34 34 34 34 34 34 34 34 34 34 34 35 35
42 41 41 40 40 39 38 38 38 37 37 37 36 36 36 36 36 36 36 36 36 36 36 36 35 35 34 34 34 34 35 35 35 35 36 36 36 36 36 36 37 37 37
43 43 42 41 41 40 40 40 39 39 38 38 38 37 37 37 37 37 37 37 37 37 37 37 36 36 36 35 35 36 36 36 36 37 37 37 37 37 37 37 38 38 38
43 43 43 42 41 41 41 40 39 39 39 39 39 38 38 38 38 38 38 38 38 38 38 37 37 36 37 37 37 37 37 38 38 38 38 38 38 38 39 39 39 39 39
45 44 44 43 42 42 42 41 41 40 39 39 39 39 39 39 39 39 38 38 38 38 38 38 38 37 37 38 38 38 38 37 38 39 39 39 39 39 39 39 39 39 39
46 45 44 44 44 43 43 43 42 42 41 41 41 40 40 40 40 39 39 39 39 39 39 39 38 39 39 38 39 39 39 39 39 39 39 39 39 40 40 40 40 40 41
46 46 45 45 44 44 44 43 43 43 43 42 41 41 40 40 40 41 41 40 41 41 41 40 41 41 41 40 41 41 41 41 41 41 40 40 40 40 41 41 42 42 42
48 47 46 46 46 45 45 44 44 44 43 43 42 42 42 41 41 42 42 42 42 42 43 42 42 43 43 43 43 43 43 43 43 42 42 42 42 42 43 43 43 44 44
49 48 48 47 47 47 46 45 45 44 45 44 44 44 43 43 43 43 43 43 43 44 44 45 44 45 45 46 46 45 45 44 43 44 44 44 44 44 45 45 45 45 46
49 49 48 48 48 47 47 47 46 46 46 46 45 45 44 44 44 44 44 44 45 45 45 45 46 46 46 47 47 46 46 45 45 46 46 46 46 47 47 47 47 48 48
50 50 49 49 48 47 48 48 48 47 47 47 46 46 46 45 45 45 45 45 45 46 46 47 47 47 47 47 47 47 48 47 47 47 48 48 48 48 49 49 50 50 50
49 49 49 49 49 49 49 49 49 48 47 47 47 47 47 46 46 47 47 47 47 47 47 47 47 47 46 47 48 48 48 48 48 48 49 49 50 49 49 49 50 50 50
50 50 49 49 49 50 49 49 49 49 50 49 49 48 48 48 48 48 48 47 47 47 48 48 47 47 47 47 48 48 49 49 48 48 49 49 49 49 49 49 49 50 50
50 50 50 50 50 50 50 50 50 50 50 50 50 49 49 48 48 48 47 47 47 47 48 47 47 47 48 48 48 49 49 49 50 50 49 49 48 48 48 49 49 49 50
50 50 50 50 50 50 50 50 50 50 50 50 50 50 49 49 48 48 48 48 47 47 47 47 47 47 47 47 47 47 48 48 48 48 48 48 47 47 48 48 49 50 51
50 49 49 50 50 50 50 50 50 50 50 50 49 49 48 48 48 48 48 47 47 46 46 46 47 47 47 47 47 47 47 47 47 47 47 48 48 48 48 48 49 50 51
Wind_Direction
238 239 240 241 242 242 243 244 245 247 249 250 250 251 252 255 257 259 262 263 265 266 268 271 274 276 278 280 282 284 285 287 288 289 290 291 291 292 294 294 293 294 294
238 239 241 242 242 242 243 245 247 249 250 250 252 253 254 255 256 259 261 263 265 267 270 271 273 275 277 279 281 283 284 285 286 287 288 289 289 289 290 291 292 292 292
239 240 241 242 243 243 245 246 248 249 250 252 252 254 256 257 257 258 260 262 264 267 269 271 274 276 276 277 279 281 282 284 285 286 287 288 288 287 287 288 290 291 291
241 241 241 242 243 244 246 247 249 250 252 254 253 255 256 257 258 259 260 262 264 267 268 270 272 275 277 276 277 279 280 282 283 284 286 286 287 288 287 286 287 289 289
242 242 242 243 244 245 246 248 249 251 253 255 256 257 257 257 258 259 261 263 264 266 268 270 271 273 275 276 277 278 278 280 282 282 283 284 285 286 286 286 286 286 288
243 244 244 244 245 246 247 248 250 252 254 256 256 258 258 259 259 260 261 262 263 265 267 268 270 272 274 275 276 277 278 279 280 281 281 282 283 285 285 285 285 285 285
244 244 244 245 245 246 248 249 250 252 254 255 256 257 257 259 260 261 261 262 263 264 266 268 269 271 273 274 275 277 278 278 278 279 280 281 282 284 283 283 283 284 285
244 244 245 246 246 247 248 250 250 253 254 255 256 257 257 258 260 261 262 262 263 265 267 268 270 270 272 273 275 276 279 279 278 279 280 281 281 282 282 281 282 283 284
243 244 245 247 247 248 249 250 251 253 253 254 255 257 257 258 260 261 262 263 263 264 265 268 270 272 273 274 275 274 276 278 278 279 280 280 281 281 281 281 282 283 283
244 245 246 247 248 248 250 251 251 252 253 254 255 257 258 259 261 263 264 264 264 264 264 266 269 270 272 274 276 276 275 276 277 278 280 281 281 280 280 281 281 282 282
244 245 247 247 248 249 250 251 252 253 255 255 257 257 258 259 261 263 264 265 265 265 265 266 268 270 272 274 275 276 275 276 277 277 279 280 281 281 280 281 282 282 281
244 245 247 248 248 249 251 252 252 254 255 256 257 258 259 260 261 262 263 264 265 266 266 266 268 270 271 273 274 275 275 276 277 277 278 278 279 280 281 282 282 282 281
245 245 247 247 248 249 250 251 252 254 255 256 257 258 259 261 262 262 263 264 265 265 266 267 268 269 271 273 274 275 276 276 277 278 279 279 279 280 281 282 282 282 282
246 246 247 247 248 249 249 250 252 254 255 256 257 258 260 261 261 262 263 264 264 265 265 266 268 270 272 273 275 275 276 276 277 278 278 279 279 280 281 282 282 283 283
246 247 247 247 248 249 249 250 252 254 254 256 258 259 259 260 261 261 262 263 264 265 265 265 268 270 271 272 274 275 275 277 278 278 279 279 279 280 281 281 282 283 283
246 247 247 248 248 249 250 251 252 253 254 256 258 259 260 261 261 261 262 262 263 264 264 264 265 267 270 271 273 274 275 276 278 279 278 278 278 280 281 281 283 282 283
245 246 247 248 249 250 251 252 253 254 255 257 258 259 260 261 262 261 262 262 262 263 264 265 265 267 268 269 271 274 275 276 277 278 277 278 279 280 281 281 281 282 282
244 245 246 247 248 249 250 251 253 254 255 257 258 258 260 260 262 262 263 263 263 263 264 264 265 265 267 269 271 273 274 275 276 277 277 277 278 280 281 282 282 282 282
244 245 246 247 248 248 250 251 253 253 255 256 257 258 259 260 261 262 262 263 264 264 264 265 266 267 268 269 271 272 274 275 275 276 276 276 277 279 280 282 283 282 282
245 246 246 247 248 249 250 251 252 253 255 257 258 258 259 260 261 262 262 263 264 265 265 267 268 268 268 269 271 272 273 274 275 276 276 276 277 278 279 280 281 282 282
244 246 246 247 248 249 250 252 253 254 255 257 257 258 258 260 261 262 262 263 264 265 267 268 268 269 269 269 271 272 273 274 275 276 276 276 278 279 279 280 281 282 282
244 245 247 248 249 250 251 252 253 254 255 257 258 258 259 260 261 263 263 264 266 267 268 268 268 269 269 270 271 272 272 273 275 275 276 277 279 280 280 281 282 282 282
244 245 247 248 249 251 252 253 253 254 255 257 258 259 260 261 262 264 264 265 266 267 267 268 269 270 270 270 271 272 273 274 275 276 277 278 279 280 280 281 282 282 282
245 246 247 248 249 250 252 254 254 255 256 257 258 260 260 261 263 264 264 264 265 267 268 269 270 270 270 271 272 272 274 275 276 277 278 278 279 280 281 282 281 282 283
245 246 247 248 249 251 252 253 254 255 256 257 258 259 260 261 263 263 263 264 265 267 268 268 269 270 270 271 271 273 274 275 276 277 278 279 278 279 281 281 283 284 285
246 246 247 248 249 250 251 252 253 254 255 256 257 259 260 261 262 262 262 263 265 266 267 268 269 270 271 272 273 274 276 276 277 277 278 278 278 279 280 282 284 285 285
Height
5841 5843 5845 5847 5848 5850 5852 5853 5855 5856 5857 5858 5859 5860 5861 5862 5862 5863 5864 5864 5864 5864 5864 5864 5864 5863 5863 5863 5862 5862 5861 5860 5859 5858 5857 5856 5855 5854 5853 5852 5851 5849 5848
5836 5838 5840 5842 5844 5846 5847 5849 5850 5851 5853 5854 5855 5856 5857 5857 5858 5859 5860 5860 5860 5860 5860 5860 5860 5860 5859 5859 5858 5858 5857 5856 5855 5854 5853 5852 5851 5850 5849 5848 5847 5846 5845
5830 5833 5835 5837 5839 5841 5843 5844 5846 5847 5848 5849 5850 5851 5852 5853 5854 5855 5855 5856 5856 5856 5856 5856 5856 5856 5855 5855 5854 5854 5853 5852 5852 5851 5850 5848 5847 5846 5845 5844 5843 5842 5841
5824 5827 5829 5831 5833 5835 5837 5839 5841 5842 5843 5845 5846 5847 5847 5848 5849 5850 5850 5851 5851 5852 5852 5852 5852 5851 5851 5850 5850 5849 5849 5848 5847 5846 5845 5844 5843 5842 5840 5839 5838 5837 5836
5818 5820 5823 5825 5827 5829 5831 5833 5835 5837 5838 5839 5841 5842 5842 5843 5844 5844 5845 5846 5846 5846 5847 5847 5847 5846 5846 5846 5845 5844 5844 5843 5842 5841 5840 5839 5838 5837 5836 5834 5833 5832 5832
5811 5814 5816 5818 5820 5823 5825 5827 5829 5830 5832 5833 5835 5836 5837 5837 5838 5839 5839 5840 5841 5841 5841 5841 5841 5841 5841 5840 5840 5839 5839 5838 5837 5836 5835 5834 5833 5832 5831 5829 5828 5827 5826
5804 5807 5809 5811 5813 5816 5818 5820 5822 5824 5825 5827 5828 5829 5830 5831 5832 5833 5833 5834 5835 5835 5835 5835 5835 5835 5835 5835 5834 5834 5833 5832 5831 5831 5830 5829 5828 5826 5825 5824 5823 5822 5821
5796 5799 5801 5804 5806 5808 5810 5813 5815 5816 5818 5820 5821 5822 5823 5825 5826 5826 5827 5828 5828 5829 5829 5829 5829 5829 5829 5828 5828 5827 5827 5826 5825 5825 5824 5823 5821 5820 5819 5818 5817 5816 5815
5788 5791 5793 5796 5798 5801 5803 5805 5807 5809 5810 5812 5814 5815 5816 5818 5819 5820 5820 5821 5821 5822 5822 5822 5822 5822 5822 5822 5822 5821 5820 5820 5819 5818 5817 5816 5815 5814 5813 5812 5811 5810 5809
5779 5782 5785 5787 5790 5792 5795 5797 5798 5800 5802 5804 5806 5807 5809 5810 5811 5812 5813 5813 5814 5814 5815 5815 5815 5815 5815 5815 5814 5814 5813 5813 5812 5811 5810 5809 5807 5806 5805 5805 5804 5802 5801
5770 5773 5776 5779 5781 5784 5786 5788 5790 5792 5794 5796 5797 5799 5800 5802 5803 5804 5805 5805 5806 5806 5807 5807 5807 5807 5807 5807 5807 5806 5805 5805 5804 5803 5802 5801 5800 5799 5798 5797 5796 5795 5793
5761 5764 5767 5769 5772 5775 5777 5779 5781 5783 5785 5787 5789 5790 5792 5793 5794 5795 5796 5796 5797 5798 5798 5799 5799 5799 5799 5799 5799 5798 5798 5797 5796 5795 5795 5794 5792 5791 5790 5789 5788 5786 5785
5751 5754 5757 5760 5763 5765 5768 5770 5772 5775 5776 5778 5780 5781 5783 5784 5785 5786 5787 5787 5788 5789 5790 5790 5791 5791 5791 5791 5790 5790 5789 5789 5788 5787 5786 5785 5784 5783 5782 5780 5779 5778 5776
5741 5744 5747 5750 5753 5756 5758 5761 5763 5765 5767 5769 5770 5772 5773 5774 5775 5776 5777 5778 5779 5780 5781 5782 5782 5782 5782 5782 5782 5781 5781 5780 5779 5779 5777 5776 5775 5774 5773 5772 5770 5768 5767
5731 5734 5737 5740 5743 5746 5748 5751 5754 5756 5757 5759 5761 5762 5763 5764 5765 5766 5767 5768 5770 5771 5772 5773 5773 5773 5773 5773 5773 5772 5772 5771 5770 5769 5768 5767 5766 5765 5764 5762 5760 5759 5757
5720 5723 5726 5730 5733 5736 5738 5741 5743 5746 5748 5749 5751 5753 5754 5755 5756 5756 5757 5758 5760 5761 5762 5763 5764 5764 5763 5763 5763 5763 5762 5762 5760 5759 5758 5757 5756 5755 5754 5752 5750 5749 5747
5709 5712 5716 5719 5722 5725 5728 5730 5733 5735 5737 5739 5741 5743 5744 5745 5746 5746 5747 5748 5749 5750 5752 5753 5753 5754 5753 5754 5754 5753 5752 5751 5750 5749 5748 5747 5746 5745 5743 5742 5740 5738 5736
5698 5701 5705 5708 5711 5714 5717 5720 5722 5725 5727 5729 5731 5732 5733 5734 5735 5736 5737 5738 5739 5740 5741 5742 5743 5743 5743 5743 5743 5742 5742 5741 5740 5739 5737 5736 5735 5734 5733 5731 5729 5727 5725
5686 5690 5693 5697 5700 5703 5706 5709 5712 5714 5716 5718 5720 5721 5723 5724 5725 5726 5727 5728 5728 5729 5730 5731 5732 5732 5732 5732 5732 5731 5730 5729 5728 5727 5726 5725 5724 5723 5721 5719 5718 5716 5714
5674 5678 5682 5685 5688 5691 5694 5697 5700 5703 5705 5707 5708 5710 5711 5713 5714 5715 5716 5717 5717 5718 5719 5719 5720 5720 5720 5720 5720 5719 5719 5718 5717 5716 5715 5714 5712 5711 5709 5708 5706 5704 5702
5662 5666 5669 5672 5676 5679 5682 5685 5688 5690 5693 5695 5697 5698 5700 5701 5702 5703 5705 5705 5706 5707 5707 5708 5708 5708 5708 5708 5708 5707 5706 5706 5705 5704 5703 5701 5700 5698 5696 5694 5693 5691 5689
5650 5653 5657 5660 5664 5667 5670 5673 5675 5678 5680 5683 5685 5686 5688 5689 5691 5692 5693 5693 5694 5695 5695 5696 5696 5696 5696 5696 5695 5694 5694 5693 5693 5692 5690 5688 5687 5685 5683 5681 5679 5677 5675
5638 5641 5644 5648 5652 5655 5657 5660 5663 5665 5668 5670 5672 5674 5676 5677 5678 5679 5680 5681 5682 5682 5683 5684 5684 5684 5683 5683 5682 5682 5681 5680 5680 5679 5677 5675 5673 5671 5669 5667 5665 5663 5662
5625 5629 5632 5636 5639 5642 5645 5647 5650 5652 5655 5657 5659 5661 5663 5664 5666 5667 5668 5669 5670 5670 5671 5671 5671 5671 5670 5669 5669 5669 5668 5667 5666 5665 5663 5662 5660 5658 5656 5654 5652 5650 5648
5613 5616 5619 5623 5626 5629 5632 5634 5637 5639 5642 5644 5646 5648 5650 5651 5653 5654 5655 5657 5658 5658 5658 5658 5658 5658 5657 5657 5656 5655 5655 5654 5653 5652 5649 5648 5647 5645 5643 5641 5638 5636 5633
5600 5603 5607 5610 5613 5616 5619 5621 5624 5626 5629 5632 5633 5635 5637 5639 5640 5641 5642 5644 5645 5645 5645 5645 5645 5645 5645 5644 5643 5642 5642 5640 5639 5639 5637 5635 5633 5632 5631 5629 5626 5623 5619